This is the latest recevied weather packets stored in our database for station/object KD0ISH. If no packets are shown the sender has not sent any weather packets the latest 10 day(s).
| Time | Temp. | Humidity | Pressure | Rain* | Wind** | Luminosity | Snow |
|---|---|---|---|---|---|---|---|
| 1777737686 | 13.89° C | 57% | 1022.6 hPa | 0 mm | - | 129 W/m² | - |
| 1777737384 | 14.44° C | 60% | 1022.6 hPa | 0 mm | - | 138 W/m² | - |
| 1777737080 | 13.89° C | 64% | 1022.7 hPa | 0 mm | - | 82 W/m² | - |
| 1777736776 | 13.89° C | 64% | 1022.6 hPa | 0 mm | - | 83 W/m² | - |
| 1777736148 | 13.33° C | 64% | 1022.7 hPa | 0 mm | - | 53 W/m² | - |
| 1777735845 | 13.33° C | 66% | 1022.5 hPa | 0 mm | - | 219 W/m² | - |
| 1777735543 | 13.33° C | 66% | 1022.6 hPa | 0 mm | - | 50 W/m² | - |
| 1777735240 | 13.89° C | 66% | 1022.6 hPa | 0 mm | - | 49 W/m² | - |
| 1777734937 | 13.33° C | 67% | 1022.7 hPa | 0 mm | - | 72 W/m² | - |
| 1777734634 | 12.78° C | 66% | 1022.6 hPa | 0 mm | - | 49 W/m² | - |
| 1777734332 | 12.22° C | 69% | 1022.5 hPa | 0 mm | - | 47 W/m² | - |
| 1777734028 | 12.22° C | 69% | 1022.6 hPa | 0 mm | - | 48 W/m² | - |
| 1777733724 | 12.78° C | 66% | 1022.5 hPa | 0 mm | - | 49 W/m² | - |
| 1777733421 | 12.78° C | 69% | 1022.3 hPa | 0 mm | - | 47 W/m² | - |
| 1777733117 | 12.22° C | 69% | 1022.6 hPa | 0 mm | - | 45 W/m² | - |
| 1777732814 | 12.22° C | 68% | 1022.4 hPa | 0 mm | - | 46 W/m² | - |
| 1777732510 | 12.22° C | 72% | 1022.4 hPa | 0 mm | - | 46 W/m² | - |
| 1777732209 | 11.67° C | 70% | 1022.2 hPa | 0 mm | - | 48 W/m² | - |
| 1777731905 | 11.67° C | 73% | 1022.2 hPa | 0 mm | - | 45 W/m² | - |
| 1777731602 | 11.67° C | 73% | 1022.2 hPa | 0 mm | - | 47 W/m² | - |
| 1777731300 | 11.11° C | 74% | 1022.2 hPa | 0 mm | - | 44 W/m² | - |
| 1777730996 | 11.11° C | 72% | 1022.2 hPa | 0 mm | - | 45 W/m² | - |
| 1777730696 | 11.11° C | 73% | 1022.2 hPa | 0 mm | - | 46 W/m² | - |
| 1777730391 | 11.11° C | 72% | 1022.3 hPa | 0 mm | - | 44 W/m² | - |
| 1777730087 | 11.11° C | 73% | 1022.4 hPa | 0 mm | - | 44 W/m² | - |
* Rain latest hour (hover to see other rain measurements)
** Current wind speed in m/s (hover to see current wind gust speed)